TimeMST,TemperatureF,Dew PointF,Humidity,Sea Level PressureIn,VisibilityMPH,Wind Direction,Wind SpeedMPH,Gust SpeedMPH,PrecipitationIn,Events,Conditions,WindDirDegrees,DateUTC
12:15 AM,5.0,1.4,85,29.75,10.0,NW,12.7,-,N/A,,Mostly Cloudy,310,2013-12-20 07:15:00
12:35 AM,3.2,-0.4,85,29.74,10.0,WNW,8.1,-,N/A,,Clear,300,2013-12-20 07:35:00
12:55 AM,3.2,-0.4,85,29.73,10.0,WNW,13.8,-,N/A,,Clear,300,2013-12-20 07:55:00
1:10 AM,5.0,1.4,85,29.73,10.0,WNW,15.0,-,N/A,,Clear,300,2013-12-20 08:10:00
1:35 AM,3.2,-0.4,85,29.73,10.0,WNW,8.1,-,N/A,,Clear,300,2013-12-20 08:35:00
1:55 AM,3.2,-0.4,85,29.72,10.0,West,11.5,-,N/A,,Clear,280,2013-12-20 08:55:00
2:15 AM,5.0,1.4,85,29.71,10.0,WNW,10.4,-,N/A,,Clear,290,2013-12-20 09:15:00
2:35 AM,8.6,3.2,79,29.71,10.0,WNW,10.4,-,N/A,,Clear,290,2013-12-20 09:35:00
2:55 AM,10.4,5.0,79,29.71,10.0,NW,12.7,-,N/A,,Clear,320,2013-12-20 09:55:00
3:15 AM,12.2,8.6,85,29.71,10.0,WNW,13.8,-,N/A,,Clear,290,2013-12-20 10:15:00
3:35 AM,15.8,8.6,73,29.71,10.0,WNW,13.8,24.2,N/A,,Clear,290,2013-12-20 10:35:00
3:55 AM,14.0,6.8,73,29.71,10.0,WNW,10.4,13.8,N/A,,Clear,300,2013-12-20 10:55:00
4:15 AM,10.4,5.0,79,29.71,10.0,NW,8.1,-,N/A,,Clear,320,2013-12-20 11:15:00
4:35 AM,12.2,5.0,73,29.70,10.0,NW,11.5,-,N/A,,Clear,310,2013-12-20 11:35:00
4:55 AM,14.0,5.0,67,29.69,10.0,WNW,17.3,21.9,N/A,,Scattered Clouds,300,2013-12-20 11:55:00
5:15 AM,14.0,5.0,67,29.68,10.0,WNW,18.4,24.2,N/A,,Scattered Clouds,290,2013-12-20 12:15:00
5:35 AM,15.8,5.0,62,29.67,10.0,NW,16.1,-,N/A,,Mostly Cloudy,310,2013-12-20 12:35:00
5:55 AM,15.8,5.0,62,29.67,10.0,NW,13.8,-,N/A,,Overcast,320,2013-12-20 12:55:00
6:15 AM,14.0,5.0,67,29.67,10.0,NW,16.1,-,N/A,,Mostly Cloudy,320,2013-12-20 13:15:00
6:35 AM,14.0,5.0,67,29.68,10.0,NW,19.6,-,N/A,,Scattered Clouds,320,2013-12-20 13:35:00
6:55 AM,12.2,3.2,67,29.68,10.0,NNW,15.0,-,N/A,,Clear,330,2013-12-20 13:55:00
7:15 AM,12.2,3.2,67,29.70,10.0,NNW,15.0,-,N/A,,Clear,330,2013-12-20 14:15:00
7:35 AM,12.2,3.2,67,29.70,10.0,WNW,16.1,-,N/A,,Clear,300,2013-12-20 14:35:00
7:55 AM,12.2,3.2,67,29.69,10.0,WNW,19.6,-,N/A,,Clear,290,2013-12-20 14:55:00
8:15 AM,12.2,3.2,67,29.67,10.0,WNW,26.5,31.1,N/A,,Clear,290,2013-12-20 15:15:00
8:35 AM,12.2,3.2,67,29.69,10.0,WNW,20.7,26.5,N/A,,Clear,300,2013-12-20 15:35:00
8:55 AM,14.0,3.2,62,29.70,0.8,NW,23.0,28.8,N/A,Snow,Light Snow,310,2013-12-20 15:55:00
9:15 AM,14.0,3.2,62,29.69,0.8,NW,25.3,33.4,N/A,Snow,Light Snow,320,2013-12-20 16:15:00
9:35 AM,14.0,3.2,62,29.70,7.0,NW,18.4,25.3,N/A,,Clear,310,2013-12-20 16:35:00
9:55 AM,15.8,5.0,62,29.70,10.0,NW,17.3,25.3,N/A,,Clear,320,2013-12-20 16:55:00
10:15 AM,17.6,5.0,58,29.69,10.0,NW,15.0,20.7,N/A,,Clear,320,2013-12-20 17:15:00
10:35 AM,17.6,5.0,58,29.70,10.0,NW,16.1,28.8,N/A,,Clear,320,2013-12-20 17:35:00
10:55 AM,17.6,5.0,58,29.69,10.0,NW,17.3,-,N/A,,Clear,320,2013-12-20 17:55:00
11:15 AM,19.4,5.0,54,29.68,10.0,NNW,17.3,28.8,N/A,,Clear,330,2013-12-20 18:15:00
11:35 AM,19.4,5.0,54,29.68,10.0,NNW,16.1,23.0,N/A,,Clear,330,2013-12-20 18:35:00
11:55 AM,19.4,5.0,54,29.66,10.0,NNW,18.4,26.5,N/A,,Clear,340,2013-12-20 18:55:00
12:15 PM,21.2,5.0,50,29.66,10.0,NNW,16.1,25.3,N/A,,Scattered Clouds,330,2013-12-20 19:15:00
12:35 PM,23.0,5.0,46,29.65,10.0,NW,19.6,27.6,N/A,,Mostly Cloudy,310,2013-12-20 19:35:00
12:55 PM,21.2,3.2,46,29.64,10.0,NW,19.6,24.2,N/A,,Overcast,310,2013-12-20 19:55:00
1:15 PM,21.2,3.2,46,29.63,10.0,NW,17.3,25.3,N/A,,Overcast,320,2013-12-20 20:15:00
1:35 PM,21.2,3.2,46,29.62,10.0,NW,16.1,24.2,N/A,,Overcast,310,2013-12-20 20:35:00
1:55 PM,21.2,3.2,46,29.61,10.0,NW,19.6,27.6,N/A,,Mostly Cloudy,320,2013-12-20 20:55:00
2:15 PM,21.2,3.2,46,29.60,10.0,North,-9999.0,-,N/A,,Clear,0,2013-12-20 21:15:00
2:35 PM,21.2,5.0,50,29.59,7.0,North,-9999.0,-,N/A,,Clear,0,2013-12-20 21:35:00
2:55 PM,21.2,5.0,50,29.59,10.0,NW,28.8,-,N/A,,Clear,320,2013-12-20 21:55:00
3:15 PM,21.2,5.0,50,29.59,7.0,NW,33.4,41.4,N/A,,Clear,310,2013-12-20 22:15:00
3:35 PM,21.2,5.0,50,29.60,10.0,NW,29.9,39.1,N/A,,Clear,320,2013-12-20 22:35:00
3:55 PM,19.4,5.0,54,29.61,10.0,NNW,24.2,35.7,N/A,,Scattered Clouds,330,2013-12-20 22:55:00
4:15 PM,19.4,6.8,58,29.62,10.0,NNW,19.6,26.5,N/A,,Mostly Cloudy,340,2013-12-20 23:15:00
4:30 PM,19.4,6.8,58,29.61,10.0,NNW,19.6,26.5,N/A,,Mostly Cloudy,340,2013-12-20 23:30:00
4:55 PM,17.6,6.8,63,29.60,10.0,NNW,19.6,27.6,N/A,,Mostly Cloudy,330,2013-12-20 23:55:00
5:15 PM,17.6,6.8,63,29.61,10.0,NNW,18.4,27.6,N/A,,Clear,340,2013-12-21 00:15:00
5:35 PM,17.6,6.8,63,29.60,10.0,NNW,17.3,24.2,N/A,,Scattered Clouds,330,2013-12-21 00:35:00
5:55 PM,17.6,5.0,58,29.58,10.0,NNW,20.7,26.5,N/A,,Scattered Clouds,340,2013-12-21 00:55:00
6:15 PM,17.6,5.0,58,29.57,10.0,NNW,24.2,33.4,N/A,,Clear,340,2013-12-21 01:15:00
6:35 PM,17.6,5.0,58,29.57,10.0,NNW,27.6,33.4,N/A,,Clear,340,2013-12-21 01:35:00
6:55 PM,15.8,5.0,62,29.55,10.0,NNW,21.9,29.9,N/A,,Clear,340,2013-12-21 01:55:00
7:15 PM,15.8,5.0,62,29.56,10.0,NNW,20.7,29.9,N/A,,Clear,340,2013-12-21 02:15:00
7:35 PM,15.8,5.0,62,29.56,10.0,NNW,18.4,26.5,N/A,,Scattered Clouds,340,2013-12-21 02:35:00
7:55 PM,15.8,5.0,62,29.55,10.0,NNW,18.4,24.2,N/A,,Mostly Cloudy,330,2013-12-21 02:55:00
8:15 PM,15.8,5.0,62,29.54,10.0,North,21.9,27.6,N/A,,Mostly Cloudy,350,2013-12-21 03:15:00
8:35 PM,15.8,6.8,68,29.55,10.0,NNW,16.1,34.5,N/A,,Mostly Cloudy,330,2013-12-21 03:35:00
8:55 PM,15.8,8.6,73,29.55,10.0,North,20.7,31.1,N/A,,Overcast,350,2013-12-21 03:55:00
9:15 PM,15.8,8.6,73,29.54,10.0,North,21.9,28.8,N/A,,Overcast,350,2013-12-21 04:15:00
9:35 PM,15.8,8.6,73,29.53,10.0,North,24.2,29.9,N/A,,Overcast,350,2013-12-21 04:35:00
9:55 PM,15.8,8.6,73,29.51,10.0,North,24.2,32.2,N/A,,Scattered Clouds,350,2013-12-21 04:55:00
10:15 PM,15.8,6.8,68,29.50,10.0,North,27.6,34.5,N/A,,Clear,350,2013-12-21 05:15:00
10:35 PM,15.8,5.0,62,29.51,10.0,NNW,24.2,38.0,N/A,,Scattered Clouds,340,2013-12-21 05:35:00
10:55 PM,15.8,5.0,62,29.50,10.0,NNW,26.5,38.0,N/A,,Mostly Cloudy,340,2013-12-21 05:55:00
11:15 PM,14.0,5.0,67,29.51,10.0,NNW,20.7,32.2,N/A,,Scattered Clouds,340,2013-12-21 06:15:00
11:35 PM,15.8,5.0,62,29.50,10.0,North,23.0,31.1,N/A,,Clear,350,2013-12-21 06:35:00
11:55 PM,15.8,5.0,62,29.50,10.0,North,24.2,33.4,N/A,,Mostly Cloudy,350,2013-12-21 06:55:00